owner,sensor,date,latitude,longitude,air_temperature,qcFlag 
DISL,ioos:station:DISL:MHPA:1,2014-07-01T00:00:00Z,30.6671,-87.9365,30.44,1111122 
DISL,ioos:station:DISL:MHPA:1,2014-07-01T00:30:00Z,30.6671,-87.9365,30.48,1111122 
DISL,ioos:station:DISL:MHPA:1,2014-07-01T01:00:00Z,30.6671,-87.9365,30.44,1111122 
DISL,ioos:station:DISL:MHPA:1,2014-07-01T01:30:00Z,30.6671,-87.9365,30.25,1111122 
DISL,ioos:station:DISL:MHPA:1,2014-07-01T02:00:00Z,30.6671,-87.9365,30.03,1111122 
DISL,ioos:station:DISL:MHPA:1,2014-07-01T02:30:00Z,30.6671,-87.9365,29.59,1111122 
DISL,ioos:station:DISL:MHPA:1,2014-07-01T03:00:00Z,30.6671,-87.9365,29.39,1111122 
DISL,ioos:station:DISL:MHPA:1,2014-07-01T03:30:00Z,30.6671,-87.9365,29.18,1111122 
DISL,ioos:station:DISL:MHPA:1,2014-07-01T04:00:00Z,30.6671,-87.9365,29.08,1111122 
DISL,ioos:station:DISL:MHPA:1,2014-07-01T04:30:00Z,30.6671,-87.9365,28.88,1111122 
DISL,ioos:station:DISL:MHPA:1,2014-07-01T05:00:00Z,30.6671,-87.9365,28.75,1111122 
DISL,ioos:station:DISL:MHPA:1,2014-07-01T05:30:00Z,30.6671,-87.9365,28.64,1111122 
DISL,ioos:station:DISL:MHPA:1,2014-07-01T06:00:00Z,30.6671,-87.9365,28.58,1111122 
DISL,ioos:station:DISL:MHPA:1,2014-07-01T06:30:00Z,30.6671,-87.9365,28.41,1111122 
DISL,ioos:station:DISL:MHPA:1,2014-07-01T07:00:00Z,30.6671,-87.9365,28.24,1111122 
DISL,ioos:station:DISL:MHPA:1,2014-07-01T07:30:00Z,30.6671,-87.9365,28.17,1111122 
DISL,ioos:station:DISL:MHPA:1,2014-07-01T08:00:00Z,30.6671,-87.9365,27.84,1111122 
DISL,ioos:station:DISL:MHPA:1,2014-07-01T08:30:00Z,30.6671,-87.9365,27.57,1111122 
DISL,ioos:station:DISL:MHPA:1,2014-07-01T09:00:00Z,30.6671,-87.9365,27.48,1111122 
DISL,ioos:station:DISL:MHPA:1,2014-07-01T09:30:00Z,30.6671,-87.9365,27.31,1111122 
DISL,ioos:station:DISL:MHPA:1,2014-07-01T10:00:00Z,30.6671,-87.9365,26.74,1111122 
DISL,ioos:station:DISL:MHPA:1,2014-07-01T10:30:00Z,30.6671,-87.9365,26.81,1111122 
DISL,ioos:station:DISL:MHPA:1,2014-07-01T11:00:00Z,30.6671,-87.9365,26.61,1111122 
DISL,ioos:station:DISL:MHPA:1,2014-07-01T11:30:00Z,30.6671,-87.9365,26.48,1111122 
DISL,ioos:station:DISL:MHPA:1,2014-07-01T12:00:00Z,30.6671,-87.9365,26.54,1111122 
DISL,ioos:station:DISL:MHPA:1,2014-07-01T12:30:00Z,30.6671,-87.9365,26.6,1111122 
DISL,ioos:station:DISL:MHPA:1,2014-07-01T13:00:00Z,30.6671,-87.9365,26.97,1111122 
DISL,ioos:station:DISL:MHPA:1,2014-07-01T13:30:00Z,30.6671,-87.9365,27.47,1111122 
DISL,ioos:station:DISL:MHPA:1,2014-07-01T14:00:00Z,30.6671,-87.9365,27.77,1111122 
DISL,ioos:station:DISL:MHPA:1,2014-07-01T14:30:00Z,30.6671,-87.9365,28.44,1111122 
DISL,ioos:station:DISL:MHPA:1,2014-07-01T15:00:00Z,30.6671,-87.9365,29.13,1111122 
DISL,ioos:station:DISL:MHPA:1,2014-07-01T15:30:00Z,30.6671,-87.9365,29.63,1111122 
DISL,ioos:station:DISL:MHPA:1,2014-07-01T16:00:00Z,30.6671,-87.9365,30.14,1111122 
DISL,ioos:station:DISL:MHPA:1,2014-07-01T16:30:00Z,30.6671,-87.9365,30.74,1111122 
DISL,ioos:station:DISL:MHPA:1,2014-07-01T17:00:00Z,30.6671,-87.9365,30.8,1111122 
DISL,ioos:station:DISL:MHPA:1,2014-07-01T17:30:00Z,30.6671,-87.9365,31.64,1111122 
DISL,ioos:station:DISL:MHPA:1,2014-07-01T18:00:00Z,30.6671,-87.9365,31.93,1111122 
DISL,ioos:station:DISL:MHPA:1,2014-07-01T18:30:00Z,30.6671,-87.9365,32.07,1111122 
DISL,ioos:station:DISL:MHPA:1,2014-07-01T19:00:00Z,30.6671,-87.9365,32.51,1111122 
DISL,ioos:station:DISL:MHPA:1,2014-07-01T19:30:00Z,30.6671,-87.9365,32.44,1111122 
DISL,ioos:station:DISL:MHPA:1,2014-07-01T20:00:00Z,30.6671,-87.9365,32.88,1111122 
DISL,ioos:station:DISL:MHPA:1,2014-07-01T20:30:00Z,30.6671,-87.9365,32.7,1111122 
DISL,ioos:station:DISL:MHPA:1,2014-07-01T21:00:00Z,30.6671,-87.9365,34.08,1111122 
DISL,ioos:station:DISL:MHPA:1,2014-07-01T21:30:00Z,30.6671,-87.9365,33.8,1111122 
DISL,ioos:station:DISL:MHPA:1,2014-07-01T22:00:00Z,30.6671,-87.9365,33.86,1111122 
DISL,ioos:station:DISL:MHPA:1,2014-07-01T22:30:00Z,30.6671,-87.9365,33.56,1111122 
DISL,ioos:station:DISL:MHPA:1,2014-07-01T23:00:00Z,30.6671,-87.9365,32.18,1111122 
DISL,ioos:station:DISL:MHPA:1,2014-07-01T23:30:00Z,30.6671,-87.9365,32.07,1111122 
DISL,ioos:station:DISL:MHPA:1,2014-07-02T00:00:00Z,30.6671,-87.9365,31.66,1111122 
DISL,ioos:station:DISL:MHPA:1,2014-07-02T00:30:00Z,30.6671,-87.9365,31.07,1111122 
DISL,ioos:station:DISL:MHPA:1,2014-07-02T01:00:00Z,30.6671,-87.9365,30.78,1111122 
DISL,ioos:station:DISL:MHPA:1,2014-07-02T01:30:00Z,30.6671,-87.9365,30.51,1111122 
DISL,ioos:station:DISL:MHPA:1,2014-07-02T02:00:00Z,30.6671,-87.9365,30.31,1111122 
DISL,ioos:station:DISL:MHPA:1,2014-07-02T02:30:00Z,30.6671,-87.9365,30.14,1111122 
DISL,ioos:station:DISL:MHPA:1,2014-07-02T03:00:00Z,30.6671,-87.9365,29.85,1111122 
DISL,ioos:station:DISL:MHPA:1,2014-07-02T03:30:00Z,30.6671,-87.9365,29.66,1111122 
DISL,ioos:station:DISL:MHPA:1,2014-07-02T04:00:00Z,30.6671,-87.9365,29.45,1111122 
DISL,ioos:station:DISL:MHPA:1,2014-07-02T04:30:00Z,30.6671,-87.9365,29.29,1111122 
DISL,ioos:station:DISL:MHPA:1,2014-07-02T05:00:00Z,30.6671,-87.9365,29.08,1111122 
DISL,ioos:station:DISL:MHPA:1,2014-07-02T05:30:00Z,30.6671,-87.9365,28.31,1111122 
DISL,ioos:station:DISL:MHPA:1,2014-07-02T06:00:00Z,30.6671,-87.9365,27.87,1111122 
DISL,ioos:station:DISL:MHPA:1,2014-07-02T06:30:00Z,30.6671,-87.9365,27.67,1111122 
DISL,ioos:station:DISL:MHPA:1,2014-07-02T07:00:00Z,30.6671,-87.9365,27.43,1111122 
DISL,ioos:station:DISL:MHPA:1,2014-07-02T07:30:00Z,30.6671,-87.9365,27.11,1111122 
DISL,ioos:station:DISL:MHPA:1,2014-07-02T08:00:00Z,30.6671,-87.9365,26.61,1111122 
DISL,ioos:station:DISL:MHPA:1,2014-07-02T08:30:00Z,30.6671,-87.9365,26.61,1111122 
DISL,ioos:station:DISL:MHPA:1,2014-07-02T09:00:00Z,30.6671,-87.9365,26.41,1111122 
DISL,ioos:station:DISL:MHPA:1,2014-07-02T09:30:00Z,30.6671,-87.9365,26.24,1111122 
DISL,ioos:station:DISL:MHPA:1,2014-07-02T10:00:00Z,30.6671,-87.9365,26.14,1111122 
DISL,ioos:station:DISL:MHPA:1,2014-07-02T10:30:00Z,30.6671,-87.9365,25.97,1111122 
DISL,ioos:station:DISL:MHPA:1,2014-07-02T11:00:00Z,30.6671,-87.9365,25.7,1111122 
DISL,ioos:station:DISL:MHPA:1,2014-07-02T11:30:00Z,30.6671,-87.9365,25.97,1111122 
DISL,ioos:station:DISL:MHPA:1,2014-07-02T12:00:00Z,30.6671,-87.9365,26.41,1111122 
DISL,ioos:station:DISL:MHPA:1,2014-07-02T12:30:00Z,30.6671,-87.9365,26.93,1111122 
DISL,ioos:station:DISL:MHPA:1,2014-07-02T13:00:00Z,30.6671,-87.9365,27.3,1111122 
DISL,ioos:station:DISL:MHPA:1,2014-07-02T13:30:00Z,30.6671,-87.9365,28.48,1111122 
DISL,ioos:station:DISL:MHPA:1,2014-07-02T14:00:00Z,30.6671,-87.9365,29.23,1111122 
DISL,ioos:station:DISL:MHPA:1,2014-07-02T14:30:00Z,30.6671,-87.9365,29.87,1111122 
DISL,ioos:station:DISL:MHPA:1,2014-07-02T15:00:00Z,30.6671,-87.9365,30.27,1111122 
DISL,ioos:station:DISL:MHPA:1,2014-07-02T15:30:00Z,30.6671,-87.9365,30.74,1111122 
DISL,ioos:station:DISL:MHPA:1,2014-07-02T16:00:00Z,30.6671,-87.9365,31.27,1111122 
DISL,ioos:station:DISL:MHPA:1,2014-07-02T16:30:00Z,30.6671,-87.9365,31.66,1111122 
DISL,ioos:station:DISL:MHPA:1,2014-07-02T17:00:00Z,30.6671,-87.9365,31.83,1111122 
DISL,ioos:station:DISL:MHPA:1,2014-07-02T17:30:00Z,30.6671,-87.9365,32.1,1111122 
DISL,ioos:station:DISL:MHPA:1,2014-07-02T18:00:00Z,30.6671,-87.9365,31.53,1111122 
DISL,ioos:station:DISL:MHPA:1,2014-07-02T18:30:00Z,30.6671,-87.9365,31.83,1111122 
DISL,ioos:station:DISL:MHPA:1,2014-07-02T19:00:00Z,30.6671,-87.9365,31.73,1111122 
DISL,ioos:station:DISL:MHPA:1,2014-07-02T19:30:00Z,30.6671,-87.9365,32.17,1111122 
DISL,ioos:station:DISL:MHPA:1,2014-07-02T20:00:00Z,30.6671,-87.9365,32.14,1111122 
DISL,ioos:station:DISL:MHPA:1,2014-07-02T20:30:00Z,30.6671,-87.9365,32.41,1111122 
DISL,ioos:station:DISL:MHPA:1,2014-07-02T21:00:00Z,30.6671,-87.9365,32.37,1111122 
DISL,ioos:station:DISL:MHPA:1,2014-07-02T21:30:00Z,30.6671,-87.9365,32.54,1111122 
DISL,ioos:station:DISL:MHPA:1,2014-07-02T22:00:00Z,30.6671,-87.9365,32.04,1111122 
DISL,ioos:station:DISL:MHPA:1,2014-07-02T22:30:00Z,30.6671,-87.9365,32.04,1111122 
DISL,ioos:station:DISL:MHPA:1,2014-07-02T23:00:00Z,30.6671,-87.9365,31.9,1111122 
DISL,ioos:station:DISL:MHPA:1,2014-07-02T23:30:00Z,30.6671,-87.9365,31.56,1111122 
DISL,ioos:station:DISL:MHPA:1,2014-07-03T00:00:00Z,30.6671,-87.9365,31.2,1111122 
DISL,ioos:station:DISL:MHPA:1,2014-07-03T00:30:00Z,30.6671,-87.9365,31.05,1111122 
DISL,ioos:station:DISL:MHPA:1,2014-07-03T01:00:00Z,30.6671,-87.9365,30.64,1111122 
DISL,ioos:station:DISL:MHPA:1,2014-07-03T01:30:00Z,30.6671,-87.9365,30.44,1111122 
DISL,ioos:station:DISL:MHPA:1,2014-07-03T02:00:00Z,30.6671,-87.9365,30.31,1111122 
DISL,ioos:station:DISL:MHPA:1,2014-07-03T02:30:00Z,30.6671,-87.9365,29.92,1111122 
DISL,ioos:station:DISL:MHPA:1,2014-07-03T03:00:00Z,30.6671,-87.9365,28.85,1111122 
DISL,ioos:station:DISL:MHPA:1,2014-07-03T03:30:00Z,30.6671,-87.9365,28.11,1111122 
DISL,ioos:station:DISL:MHPA:1,2014-07-03T04:00:00Z,30.6671,-87.9365,27.53,1111122 
DISL,ioos:station:DISL:MHPA:1,2014-07-03T04:30:00Z,30.6671,-87.9365,26.66,1111122 
DISL,ioos:station:DISL:MHPA:1,2014-07-03T05:00:00Z,30.6671,-87.9365,26.6,1111122 
DISL,ioos:station:DISL:MHPA:1,2014-07-03T05:30:00Z,30.6671,-87.9365,26.07,1111122 
DISL,ioos:station:DISL:MHPA:1,2014-07-03T06:00:00Z,30.6671,-87.9365,25.53,1111122 
DISL,ioos:station:DISL:MHPA:1,2014-07-03T06:30:00Z,30.6671,-87.9365,25.23,1111122 
DISL,ioos:station:DISL:MHPA:1,2014-07-03T07:00:00Z,30.6671,-87.9365,24.99,1111122 
DISL,ioos:station:DISL:MHPA:1,2014-07-03T07:30:00Z,30.6671,-87.9365,24.39,1111122 
DISL,ioos:station:DISL:MHPA:1,2014-07-03T08:00:00Z,30.6671,-87.9365,24.09,1111122 
DISL,ioos:station:DISL:MHPA:1,2014-07-03T08:30:00Z,30.6671,-87.9365,24.06,1111122 
DISL,ioos:station:DISL:MHPA:1,2014-07-03T09:00:00Z,30.6671,-87.9365,23.93,1111122 
DISL,ioos:station:DISL:MHPA:1,2014-07-03T09:30:00Z,30.6671,-87.9365,23.63,1111122 
DISL,ioos:station:DISL:MHPA:1,2014-07-03T10:00:00Z,30.6671,-87.9365,23.39,1111122 
DISL,ioos:station:DISL:MHPA:1,2014-07-03T10:30:00Z,30.6671,-87.9365,22.96,1111122 
DISL,ioos:station:DISL:MHPA:1,2014-07-03T11:00:00Z,30.6671,-87.9365,23.09,1111122 
DISL,ioos:station:DISL:MHPA:1,2014-07-03T11:30:00Z,30.6671,-87.9365,23.19,1111122 
DISL,ioos:station:DISL:MHPA:1,2014-07-03T12:00:00Z,30.6671,-87.9365,23.36,1111122 
DISL,ioos:station:DISL:MHPA:1,2014-07-03T12:30:00Z,30.6671,-87.9365,24.16,1111122 
DISL,ioos:station:DISL:MHPA:1,2014-07-03T13:00:00Z,30.6671,-87.9365,24.62,1111122 
DISL,ioos:station:DISL:MHPA:1,2014-07-03T13:30:00Z,30.6671,-87.9365,25.03,1111122 
DISL,ioos:station:DISL:MHPA:1,2014-07-03T14:00:00Z,30.6671,-87.9365,25.46,1111122 
DISL,ioos:station:DISL:MHPA:1,2014-07-03T14:30:00Z,30.6671,-87.9365,26.3,1111122 
DISL,ioos:station:DISL:MHPA:1,2014-07-03T15:00:00Z,30.6671,-87.9365,26.66,1111122 
DISL,ioos:station:DISL:MHPA:1,2014-07-03T15:30:00Z,30.6671,-87.9365,27.06,1111122 
DISL,ioos:station:DISL:MHPA:1,2014-07-03T16:00:00Z,30.6671,-87.9365,27.26,1111122 
DISL,ioos:station:DISL:MHPA:1,2014-07-03T16:30:00Z,30.6671,-87.9365,27.8,1111122 
DISL,ioos:station:DISL:MHPA:1,2014-07-03T17:00:00Z,30.6671,-87.9365,28.64,1111122 
DISL,ioos:station:DISL:MHPA:1,2014-07-03T17:30:00Z,30.6671,-87.9365,29.16,1111122 
DISL,ioos:station:DISL:MHPA:1,2014-07-03T18:00:00Z,30.6671,-87.9365,29.73,1111122 
DISL,ioos:station:DISL:MHPA:1,2014-07-03T18:30:00Z,30.6671,-87.9365,30.04,1111122 
DISL,ioos:station:DISL:MHPA:1,2014-07-03T19:00:00Z,30.6671,-87.9365,30.17,1111122 
DISL,ioos:station:DISL:MHPA:1,2014-07-03T19:30:00Z,30.6671,-87.9365,30.31,1111122 
DISL,ioos:station:DISL:MHPA:1,2014-07-03T20:00:00Z,30.6671,-87.9365,30.95,1111122 
DISL,ioos:station:DISL:MHPA:1,2014-07-03T20:30:00Z,30.6671,-87.9365,30.84,1111122 
DISL,ioos:station:DISL:MHPA:1,2014-07-03T21:00:00Z,30.6671,-87.9365,30.63,1111122 
DISL,ioos:station:DISL:MHPA:1,2014-07-03T21:30:00Z,30.6671,-87.9365,30.94,1111122 
DISL,ioos:station:DISL:MHPA:1,2014-07-03T22:00:00Z,30.6671,-87.9365,31.32,1111122 
DISL,ioos:station:DISL:MHPA:1,2014-07-03T22:30:00Z,30.6671,-87.9365,30.93,1111122 
DISL,ioos:station:DISL:MHPA:1,2014-07-03T23:00:00Z,30.6671,-87.9365,30.97,1111122 
DISL,ioos:station:DISL:MHPA:1,2014-07-03T23:30:00Z,30.6671,-87.9365,30.81,1111122 
DISL,ioos:station:DISL:MHPA:1,2014-07-04T00:00:00Z,30.6671,-87.9365,30.07,1111122 
DISL,ioos:station:DISL:MHPA:1,2014-07-04T00:30:00Z,30.6671,-87.9365,29.6,1111122 
DISL,ioos:station:DISL:MHPA:1,2014-07-04T01:00:00Z,30.6671,-87.9365,28.71,1111122 
DISL,ioos:station:DISL:MHPA:1,2014-07-04T01:30:00Z,30.6671,-87.9365,28.0,1111122 
DISL,ioos:station:DISL:MHPA:1,2014-07-04T02:00:00Z,30.6671,-87.9365,27.8,1111122 
DISL,ioos:station:DISL:MHPA:1,2014-07-04T02:30:00Z,30.6671,-87.9365,27.33,1111122 
DISL,ioos:station:DISL:MHPA:1,2014-07-04T03:00:00Z,30.6671,-87.9365,27.14,1111122 
DISL,ioos:station:DISL:MHPA:1,2014-07-04T03:30:00Z,30.6671,-87.9365,26.91,1111122 
DISL,ioos:station:DISL:MHPA:1,2014-07-04T04:00:00Z,30.6671,-87.9365,26.48,1111122 
DISL,ioos:station:DISL:MHPA:1,2014-07-04T04:30:00Z,30.6671,-87.9365,26.24,1111122 
DISL,ioos:station:DISL:MHPA:1,2014-07-04T05:00:00Z,30.6671,-87.9365,25.67,1111122 
DISL,ioos:station:DISL:MHPA:1,2014-07-04T05:30:00Z,30.6671,-87.9365,25.63,1111122 
DISL,ioos:station:DISL:MHPA:1,2014-07-04T06:00:00Z,30.6671,-87.9365,25.09,1111122 
DISL,ioos:station:DISL:MHPA:1,2014-07-04T06:30:00Z,30.6671,-87.9365,25.1,1111122 
DISL,ioos:station:DISL:MHPA:1,2014-07-04T07:00:00Z,30.6671,-87.9365,24.8,1111122 
DISL,ioos:station:DISL:MHPA:1,2014-07-04T07:30:00Z,30.6671,-87.9365,24.23,1111122 
DISL,ioos:station:DISL:MHPA:1,2014-07-04T08:00:00Z,30.6671,-87.9365,24.0,1111122 
DISL,ioos:station:DISL:MHPA:1,2014-07-04T08:30:00Z,30.6671,-87.9365,23.63,1111122 
DISL,ioos:station:DISL:MHPA:1,2014-07-04T09:00:00Z,30.6671,-87.9365,23.39,1111122 
DISL,ioos:station:DISL:MHPA:1,2014-07-04T09:30:00Z,30.6671,-87.9365,23.16,1111122 
DISL,ioos:station:DISL:MHPA:1,2014-07-04T10:00:00Z,30.6671,-87.9365,23.02,1111122 
DISL,ioos:station:DISL:MHPA:1,2014-07-04T10:30:00Z,30.6671,-87.9365,22.58,1111122 
DISL,ioos:station:DISL:MHPA:1,2014-07-04T11:00:00Z,30.6671,-87.9365,22.31,1111122 
DISL,ioos:station:DISL:MHPA:1,2014-07-04T11:30:00Z,30.6671,-87.9365,22.45,1111122 
DISL,ioos:station:DISL:MHPA:1,2014-07-04T12:00:00Z,30.6671,-87.9365,22.31,1111122 
DISL,ioos:station:DISL:MHPA:1,2014-07-04T12:30:00Z,30.6671,-87.9365,23.19,1111122 
DISL,ioos:station:DISL:MHPA:1,2014-07-04T13:00:00Z,30.6671,-87.9365,23.45,1111122 
DISL,ioos:station:DISL:MHPA:1,2014-07-04T13:30:00Z,30.6671,-87.9365,24.22,1111122 
DISL,ioos:station:DISL:MHPA:1,2014-07-04T14:00:00Z,30.6671,-87.9365,24.99,1111122 
DISL,ioos:station:DISL:MHPA:1,2014-07-04T14:30:00Z,30.6671,-87.9365,25.72,1111122 
DISL,ioos:station:DISL:MHPA:1,2014-07-04T15:00:00Z,30.6671,-87.9365,25.88,1111122 
DISL,ioos:station:DISL:MHPA:1,2014-07-04T15:30:00Z,30.6671,-87.9365,26.76,1111122 
DISL,ioos:station:DISL:MHPA:1,2014-07-04T16:00:00Z,30.6671,-87.9365,26.82,1111122 
DISL,ioos:station:DISL:MHPA:1,2014-07-04T16:30:00Z,30.6671,-87.9365,27.26,1111122 
DISL,ioos:station:DISL:MHPA:1,2014-07-04T17:00:00Z,30.6671,-87.9365,27.57,1111122 
DISL,ioos:station:DISL:MHPA:1,2014-07-04T17:30:00Z,30.6671,-87.9365,27.73,1111122 
DISL,ioos:station:DISL:MHPA:1,2014-07-04T18:00:00Z,30.6671,-87.9365,27.97,1111122 
DISL,ioos:station:DISL:MHPA:1,2014-07-04T18:30:00Z,30.6671,-87.9365,28.71,1111122 
DISL,ioos:station:DISL:MHPA:1,2014-07-04T19:00:00Z,30.6671,-87.9365,28.78,1111122 
DISL,ioos:station:DISL:MHPA:1,2014-07-04T19:30:00Z,30.6671,-87.9365,29.1,1111122 
DISL,ioos:station:DISL:MHPA:1,2014-07-04T20:00:00Z,30.6671,-87.9365,29.4,1111122 
DISL,ioos:station:DISL:MHPA:1,2014-07-04T20:30:00Z,30.6671,-87.9365,29.43,1111122 
DISL,ioos:station:DISL:MHPA:1,2014-07-04T21:00:00Z,30.6671,-87.9365,29.94,1111122 
DISL,ioos:station:DISL:MHPA:1,2014-07-04T21:30:00Z,30.6671,-87.9365,30.14,1111122 
DISL,ioos:station:DISL:MHPA:1,2014-07-04T22:00:00Z,30.6671,-87.9365,30.31,1111122 
DISL,ioos:station:DISL:MHPA:1,2014-07-04T22:30:00Z,30.6671,-87.9365,29.94,1111122 
DISL,ioos:station:DISL:MHPA:1,2014-07-04T23:00:00Z,30.6671,-87.9365,29.57,1111122 
DISL,ioos:station:DISL:MHPA:1,2014-07-04T23:30:00Z,30.6671,-87.9365,29.43,1111122 
DISL,ioos:station:DISL:MHPA:1,2014-07-05T00:00:00Z,30.6671,-87.9365,29.23,1111122 
DISL,ioos:station:DISL:MHPA:1,2014-07-05T00:30:00Z,30.6671,-87.9365,28.43,1111122 
DISL,ioos:station:DISL:MHPA:1,2014-07-05T01:00:00Z,30.6671,-87.9365,27.46,1111122 
DISL,ioos:station:DISL:MHPA:1,2014-07-05T01:30:00Z,30.6671,-87.9365,26.76,1111122 
DISL,ioos:station:DISL:MHPA:1,2014-07-05T02:00:00Z,30.6671,-87.9365,25.8,1111122 
DISL,ioos:station:DISL:MHPA:1,2014-07-05T02:30:00Z,30.6671,-87.9365,25.5,1111122 
DISL,ioos:station:DISL:MHPA:1,2014-07-05T03:00:00Z,30.6671,-87.9365,25.6,1111122 
DISL,ioos:station:DISL:MHPA:1,2014-07-05T03:30:00Z,30.6671,-87.9365,24.8,1111122 
DISL,ioos:station:DISL:MHPA:1,2014-07-05T04:00:00Z,30.6671,-87.9365,24.57,1111122 
DISL,ioos:station:DISL:MHPA:1,2014-07-05T04:30:00Z,30.6671,-87.9365,24.2,1111122 
DISL,ioos:station:DISL:MHPA:1,2014-07-05T05:00:00Z,30.6671,-87.9365,23.5,1111122 
DISL,ioos:station:DISL:MHPA:1,2014-07-05T05:30:00Z,30.6671,-87.9365,23.5,1111122 
DISL,ioos:station:DISL:MHPA:1,2014-07-05T06:00:00Z,30.6671,-87.9365,23.12,1111122 
DISL,ioos:station:DISL:MHPA:1,2014-07-05T06:30:00Z,30.6671,-87.9365,22.75,1111122 
DISL,ioos:station:DISL:MHPA:1,2014-07-05T07:00:00Z,30.6671,-87.9365,22.38,1111122 
DISL,ioos:station:DISL:MHPA:1,2014-07-05T07:30:00Z,30.6671,-87.9365,22.25,1111122 
DISL,ioos:station:DISL:MHPA:1,2014-07-05T08:00:00Z,30.6671,-87.9365,22.21,1111122 
DISL,ioos:station:DISL:MHPA:1,2014-07-05T08:30:00Z,30.6671,-87.9365,22.01,1111122 
DISL,ioos:station:DISL:MHPA:1,2014-07-05T09:00:00Z,30.6671,-87.9365,21.38,1111122 
DISL,ioos:station:DISL:MHPA:1,2014-07-05T09:30:00Z,30.6671,-87.9365,21.09,1111122 
DISL,ioos:station:DISL:MHPA:1,2014-07-05T10:00:00Z,30.6671,-87.9365,20.95,1111122 
DISL,ioos:station:DISL:MHPA:1,2014-07-05T10:30:00Z,30.6671,-87.9365,20.82,1111122 
DISL,ioos:station:DISL:MHPA:1,2014-07-05T11:00:00Z,30.6671,-87.9365,20.85,1111122 
DISL,ioos:station:DISL:MHPA:1,2014-07-05T11:30:00Z,30.6671,-87.9365,20.72,1111122 
DISL,ioos:station:DISL:MHPA:1,2014-07-05T12:00:00Z,30.6671,-87.9365,20.78,1111122 
DISL,ioos:station:DISL:MHPA:1,2014-07-05T12:30:00Z,30.6671,-87.9365,21.42,1111122 
DISL,ioos:station:DISL:MHPA:1,2014-07-05T13:00:00Z,30.6671,-87.9365,22.05,1111122 
DISL,ioos:station:DISL:MHPA:1,2014-07-05T13:30:00Z,30.6671,-87.9365,23.42,1111122 
DISL,ioos:station:DISL:MHPA:1,2014-07-05T14:00:00Z,30.6671,-87.9365,23.98,1111122 
DISL,ioos:station:DISL:MHPA:1,2014-07-05T14:30:00Z,30.6671,-87.9365,25.06,1111122 
DISL,ioos:station:DISL:MHPA:1,2014-07-05T15:00:00Z,30.6671,-87.9365,26.05,1111122 
DISL,ioos:station:DISL:MHPA:1,2014-07-05T15:30:00Z,30.6671,-87.9365,26.59,1111122 
DISL,ioos:station:DISL:MHPA:1,2014-07-05T16:00:00Z,30.6671,-87.9365,26.79,1111122 
DISL,ioos:station:DISL:MHPA:1,2014-07-05T16:30:00Z,30.6671,-87.9365,27.53,1111122 
DISL,ioos:station:DISL:MHPA:1,2014-07-05T17:00:00Z,30.6671,-87.9365,27.56,1111122 
DISL,ioos:station:DISL:MHPA:1,2014-07-05T17:30:00Z,30.6671,-87.9365,27.5,1111122 
DISL,ioos:station:DISL:MHPA:1,2014-07-05T18:00:00Z,30.6671,-87.9365,28.04,1111122 
DISL,ioos:station:DISL:MHPA:1,2014-07-05T18:30:00Z,30.6671,-87.9365,28.44,1111122 
DISL,ioos:station:DISL:MHPA:1,2014-07-05T19:00:00Z,30.6671,-87.9365,28.63,1111122 
DISL,ioos:station:DISL:MHPA:1,2014-07-05T19:30:00Z,30.6671,-87.9365,28.86,1111122 
DISL,ioos:station:DISL:MHPA:1,2014-07-05T20:00:00Z,30.6671,-87.9365,29.5,1111122 
DISL,ioos:station:DISL:MHPA:1,2014-07-05T20:30:00Z,30.6671,-87.9365,30.04,1111122 
DISL,ioos:station:DISL:MHPA:1,2014-07-05T21:00:00Z,30.6671,-87.9365,30.44,1111122 
DISL,ioos:station:DISL:MHPA:1,2014-07-05T21:30:00Z,30.6671,-87.9365,30.67,1111122 
DISL,ioos:station:DISL:MHPA:1,2014-07-05T22:00:00Z,30.6671,-87.9365,30.32,1111122 
DISL,ioos:station:DISL:MHPA:1,2014-07-05T22:30:00Z,30.6671,-87.9365,29.68,1111122 
DISL,ioos:station:DISL:MHPA:1,2014-07-05T23:00:00Z,30.6671,-87.9365,29.19,1111122 
DISL,ioos:station:DISL:MHPA:1,2014-07-05T23:30:00Z,30.6671,-87.9365,29.26,1111122 
DISL,ioos:station:DISL:MHPA:1,2014-07-06T00:00:00Z,30.6671,-87.9365,29.04,1111122 
DISL,ioos:station:DISL:MHPA:1,2014-07-06T00:30:00Z,30.6671,-87.9365,28.1,1111122 
DISL,ioos:station:DISL:MHPA:1,2014-07-06T01:00:00Z,30.6671,-87.9365,27.9,1111122 
DISL,ioos:station:DISL:MHPA:1,2014-07-06T01:30:00Z,30.6671,-87.9365,27.81,1111122 
DISL,ioos:station:DISL:MHPA:1,2014-07-06T02:00:00Z,30.6671,-87.9365,27.61,1111122 
DISL,ioos:station:DISL:MHPA:1,2014-07-06T02:30:00Z,30.6671,-87.9365,27.25,1111122 
DISL,ioos:station:DISL:MHPA:1,2014-07-06T03:00:00Z,30.6671,-87.9365,27.28,1111122 
DISL,ioos:station:DISL:MHPA:1,2014-07-06T03:30:00Z,30.6671,-87.9365,26.75,1111122 
DISL,ioos:station:DISL:MHPA:1,2014-07-06T04:00:00Z,30.6671,-87.9365,26.27,1111122 
DISL,ioos:station:DISL:MHPA:1,2014-07-06T04:30:00Z,30.6671,-87.9365,25.83,1111122 
DISL,ioos:station:DISL:MHPA:1,2014-07-06T05:00:00Z,30.6671,-87.9365,25.7,1111122 
DISL,ioos:station:DISL:MHPA:1,2014-07-06T05:30:00Z,30.6671,-87.9365,25.26,1111122 
DISL,ioos:station:DISL:MHPA:1,2014-07-06T06:00:00Z,30.6671,-87.9365,25.17,1111122 
DISL,ioos:station:DISL:MHPA:1,2014-07-06T06:30:00Z,30.6671,-87.9365,24.93,1111122 
DISL,ioos:station:DISL:MHPA:1,2014-07-06T07:00:00Z,30.6671,-87.9365,24.5,1111122 
DISL,ioos:station:DISL:MHPA:1,2014-07-06T07:30:00Z,30.6671,-87.9365,24.33,1111122 
DISL,ioos:station:DISL:MHPA:1,2014-07-06T08:00:00Z,30.6671,-87.9365,24.13,1111122 
DISL,ioos:station:DISL:MHPA:1,2014-07-06T08:30:00Z,30.6671,-87.9365,24.1,1111122 
DISL,ioos:station:DISL:MHPA:1,2014-07-06T09:00:00Z,30.6671,-87.9365,23.63,1111122 
DISL,ioos:station:DISL:MHPA:1,2014-07-06T09:30:00Z,30.6671,-87.9365,23.43,1111122 
DISL,ioos:station:DISL:MHPA:1,2014-07-06T10:00:00Z,30.6671,-87.9365,23.26,1111122 
DISL,ioos:station:DISL:MHPA:1,2014-07-06T10:30:00Z,30.6671,-87.9365,22.96,1111122 
DISL,ioos:station:DISL:MHPA:1,2014-07-06T11:00:00Z,30.6671,-87.9365,23.02,1111122 
DISL,ioos:station:DISL:MHPA:1,2014-07-06T11:30:00Z,30.6671,-87.9365,22.99,1111122 
DISL,ioos:station:DISL:MHPA:1,2014-07-06T12:00:00Z,30.6671,-87.9365,23.09,1111122 
DISL,ioos:station:DISL:MHPA:1,2014-07-06T12:30:00Z,30.6671,-87.9365,23.77,1111122 
DISL,ioos:station:DISL:MHPA:1,2014-07-06T13:00:00Z,30.6671,-87.9365,24.06,1111122 
DISL,ioos:station:DISL:MHPA:1,2014-07-06T13:30:00Z,30.6671,-87.9365,25.16,1111122 
DISL,ioos:station:DISL:MHPA:1,2014-07-06T14:00:00Z,30.6671,-87.9365,26.23,1111122 
DISL,ioos:station:DISL:MHPA:1,2014-07-06T14:30:00Z,30.6671,-87.9365,26.82,1111122 
DISL,ioos:station:DISL:MHPA:1,2014-07-06T15:00:00Z,30.6671,-87.9365,27.8,1111122 
DISL,ioos:station:DISL:MHPA:1,2014-07-06T15:30:00Z,30.6671,-87.9365,28.53,1111122 
DISL,ioos:station:DISL:MHPA:1,2014-07-06T16:00:00Z,30.6671,-87.9365,28.89,1111122 
DISL,ioos:station:DISL:MHPA:1,2014-07-06T16:30:00Z,30.6671,-87.9365,29.26,1111122 
DISL,ioos:station:DISL:MHPA:1,2014-07-06T17:00:00Z,30.6671,-87.9365,29.73,1111122 
DISL,ioos:station:DISL:MHPA:1,2014-07-06T17:30:00Z,30.6671,-87.9365,30.6,1111122 
DISL,ioos:station:DISL:MHPA:1,2014-07-06T18:00:00Z,30.6671,-87.9365,30.35,1111122 
DISL,ioos:station:DISL:MHPA:1,2014-07-06T18:30:00Z,30.6671,-87.9365,30.32,1111122 
DISL,ioos:station:DISL:MHPA:1,2014-07-06T19:00:00Z,30.6671,-87.9365,30.4,1111122 
DISL,ioos:station:DISL:MHPA:1,2014-07-06T19:30:00Z,30.6671,-87.9365,30.42,1111122 
DISL,ioos:station:DISL:MHPA:1,2014-07-06T20:00:00Z,30.6671,-87.9365,30.52,1111122 
DISL,ioos:station:DISL:MHPA:1,2014-07-06T20:30:00Z,30.6671,-87.9365,30.69,1111122 
DISL,ioos:station:DISL:MHPA:1,2014-07-06T21:00:00Z,30.6671,-87.9365,30.22,1111122 
DISL,ioos:station:DISL:MHPA:1,2014-07-06T21:30:00Z,30.6671,-87.9365,30.36,1111122 
DISL,ioos:station:DISL:MHPA:1,2014-07-06T22:00:00Z,30.6671,-87.9365,30.53,1111122 
DISL,ioos:station:DISL:MHPA:1,2014-07-06T22:30:00Z,30.6671,-87.9365,30.54,1111122 
DISL,ioos:station:DISL:MHPA:1,2014-07-06T23:00:00Z,30.6671,-87.9365,30.48,1111122 
DISL,ioos:station:DISL:MHPA:1,2014-07-06T23:30:00Z,30.6671,-87.9365,30.24,1111122 